Regional Weather Roundup
Issued by NWS Bismarck, ND

Home | Current Version | Previous Version | Text Only | Print | Product List | Glossary On
Versions: 1 2 3 4 5 6 7 8 9 10 11 12 13 14 15 16 17 18 19 20 21 22 23 24 25 26 27 28 29 30 31 32 33 34 35 36 37 38 39 40 41 42 43 44 45 46 47 48 49 50
000
ASUS43 KBIS 311820
RWRBIS

NWR BROADCAST TEXT
NATIONAL WEATHER SERVICE BISMARCK ND
100 PM CDT FRI OCT 31 2014

NOTE: "FAIR" INDICATES FEW OR NO CLOUDS BELOW 12,000 FEET WITH NO
SIGNIFICANT WEATHER AND/OR OBSTRUCTIONS TO VISIBILITY.


CITY           SKY/WX    TMP DP  RH WIND       PRES   REMARKS
WILLISTON      MOSUNNY   39  27  62 S15G26    30.16F
MINOT          MOSUNNY   36  18  48 SE18G30   30.33F
MINOT AFB      MOSUNNY   36  21  55 S22G31    30.32F
BISMARCK       SUNNY     35  21  56 S17G28    30.43F
DICKINSON      PTSUNNY   37  24  59 SE25G36   30.20F
GARRISON         N/A     34  22  61 S18G29    30.34F
HETTINGER ARPT MOSUNNY   36  22  56 SE22G31   30.26F
JAMESTOWN      SUNNY     34  19  54 S14       30.48F
BEACH            N/A     39  32  75 SE32G44   30.10F
CARRINGTON     FAIR      32  19  59 S17       30.46F
CROSBY         FAIR      36  27  69 SE21G30   30.16F
HARVEY         FAIR      34  16  47 S20G25    30.40F
HAZEN          FAIR      36  19  51 S22G29    30.34F
LINTON         FAIR      32  23  69 S18       30.45F
MANDAN         FAIR      32  21  64 S22G28    30.39F WCI  19
OAKES            N/A     34  21  60 SE7       30.52F
RUGBY          FAIR      32  19  59 S14       30.41F
STANLEY        FAIR      32  23  69 S25G36    30.23F WCI  19
TIOGA          FAIR      34  28  80 SE25G35   30.22F
$$

CITY           SKY/WX    TMP DP  RH WIND       PRES   REMARKS
GRAND FORKS    MOSUNNY   35  20  54 S9        30.54F
GRAND FORKS AF SUNNY     36  19  51 S10       30.53F
DEVILS LAKE    SUNNY     34  16  47 S16       30.43F
FARGO          SUNNY     35  21  56 SE9       30.55F
CANDO          FAIR      32  19  59 S17G23    30.44F
CAVALIER       FAIR      34  18  51 S12G20    30.50F
GRAFTON        FAIR      34  19  55 S14       30.52F
GWINNER        CLEAR     36  21  55 SE9       30.54F
LANGDON        FAIR      34  16  47 S20       30.45F
ROLLA          FAIR      32  16  51 S20G25    30.40F
WALHALLA         N/A     34  18  51 S15       30.50F
$$

CITY           SKY/WX    TMP DP  RH WIND       PRES   REMARKS
ABERDEEN       SUNNY     35  17  47 SE6       30.54F
MOBRIDGE       SUNNY     37  18  46 S20G28    30.44F
BUFFALO          N/A     40  30  67 SE28G36   30.10F
RAPID CITY     MOSUNNY   41  30  65 S24G37    30.25F
GLASGOW        SUNNY     46  32  58 SE22G31   29.96F
SIDNEY         SUNNY     45  28  53 SE24G30   30.11F
WOLF POINT     SUNNY     48  33  56 SE9G18    30.04F
GLENDIVE       SUNNY     45  30  57 SE21      30.08F
MILES CITY     MOSUNNY   50  32  50 SE22G33   29.99F
BAKER          MOSUNNY   39  30  70 SE32G44   30.09F
$$

CITY           SKY/WX    TMP DP  RH WIND       PRES   REMARKS
BILLINGS       PTSUNNY   47  31  53 CALM      29.91F
GREAT FALLS    PTSUNNY   66  31  27 S23G29    29.75F
REGINA         PTSUNNY   34  28  80 SE26G38   30.05F
ESTEVAN        CLOUDY    36  27  69 SE16G26   30.18F
$$




USA.gov is the U.S. government's official web portal to all federal, state and local government web resources and services.